When you browse on this site, cookies collect data to enhance your experience and personalize the content and advertising you see.
Visit our Privacy Policy to learn more. By continuing to use the site, you agree to this use of cookies and data.
EN

Hourly Weather Bandar Seri Begawan

Today, 12 August, Wednesday

Time Temperature Precipitation Wind Pressure Humidity
00:00 +28°C° 0.4 mm 1 mps 757 mmHg 88%
01:00 +27°C° 0.4 mm 1 mps 757 mmHg 88%
02:00 +27°C° 0.4 mm 2 mps 756 mmHg 89%
03:00 +27°C° 0.1 mm 2 mps 756 mmHg 90%
04:00 +27°C° 0.1 mm 2 mps 756 mmHg 90%
05:00 +26°C° 0.1 mm 3 mps 756 mmHg 91%
06:00 +27°C° 0 mm 3 mps 756 mmHg 89%
07:00 +27°C° 0 mm 2 mps 756 mmHg 88%
08:00 +27°C° 0 mm 2 mps 756 mmHg 86%
09:00 +30°C° 0 mm 2 mps 757 mmHg 75%
10:00 +32°C° 0 mm 2 mps 757 mmHg 64%
11:00 +34°C° 0 mm 1 mps 757 mmHg 54%
12:00 +35°C° 0 mm 2 mps 756 mmHg 53%
13:00 +36°C° 0 mm 2 mps 755 mmHg 52%
14:00 +36°C° 0 mm 2 mps 755 mmHg 51%
15:00 +35°C° 0.7 mm 2 mps 755 mmHg 61%
16:00 +32°C° 0.7 mm 2 mps 754 mmHg 71%
17:00 +30°C° 0.7 mm 2 mps 754 mmHg 81%
18:00 +29°C° 2.1 mm 2 mps 755 mmHg 85%
19:00 +28°C° 2.1 mm 2 mps 755 mmHg 89%
20:00 +26°C° 2.1 mm 2 mps 756 mmHg 94%
21:00 +26°C° 0.7 mm 2 mps 756 mmHg 93%
22:00 +27°C° 0.7 mm 1 mps 757 mmHg 92%
23:00 +27°C° 0.7 mm 1 mps 757 mmHg 91%

Tomorrow, 13 August, Thursday

Time Temperature Precipitation Wind Pressure Humidity
00:00 +26°C° 2.9 mm 1 mps 757 mmHg 93%
01:00 +26°C° 2.9 mm 2 mps 757 mmHg 94%
02:00 +26°C° 2.9 mm 2 mps 756 mmHg 95%
03:00 +26°C° 1.1 mm 2 mps 756 mmHg 95%
04:00 +26°C° 1.1 mm 2 mps 756 mmHg 95%
05:00 +26°C° 1.1 mm 1 mps 756 mmHg 95%
06:00 +26°C° 0.2 mm 1 mps 756 mmHg 94%
07:00 +26°C° 0.2 mm 1 mps 756 mmHg 93%
08:00 +27°C° 0.2 mm 1 mps 757 mmHg 93%
09:00 +27°C° 0.1 mm 1 mps 757 mmHg 92%
10:00 +27°C° 0.1 mm 1 mps 757 mmHg 91%
11:00 +27°C° 0.1 mm 1 mps 757 mmHg 91%
12:00 +29°C° 0.1 mm 2 mps 756 mmHg 82%
13:00 +30°C° 0.1 mm 2 mps 755 mmHg 73%
14:00 +32°C° 0.1 mm 2 mps 755 mmHg 65%
15:00 +31°C° 0.5 mm 2 mps 754 mmHg 71%
16:00 +29°C° 0.5 mm 2 mps 754 mmHg 78%
17:00 +28°C° 0.5 mm 2 mps 754 mmHg 85%
18:00 +28°C° 0.3 mm 1 mps 754 mmHg 85%
19:00 +27°C° 0.3 mm 1 mps 755 mmHg 85%
20:00 +25°C° 0.3 mm 0 mps 755 mmHg 85%
21:00 +25°C° 0.3 mm 0 mps 756 mmHg 85%
22:00 +27°C° 0.3 mm 1 mps 756 mmHg 86%
23:00 +27°C° 0.3 mm 1 mps 757 mmHg 86%

Day after tomorrow, 14 August, Friday

Time Temperature Precipitation Wind Pressure Humidity
00:00 +27°C° 0.2 mm 1 mps 756 mmHg 87%
01:00 +26°C° 0.2 mm 1 mps 756 mmHg 89%
02:00 +26°C° 0.2 mm 1 mps 756 mmHg 90%
03:00 +26°C° 0.9 mm 1 mps 755 mmHg 91%
04:00 +26°C° 0.9 mm 1 mps 755 mmHg 92%
05:00 +26°C° 0.9 mm 1 mps 755 mmHg 94%
06:00 +26°C° 0 mm 1 mps 755 mmHg 93%
07:00 +26°C° 0 mm 1 mps 756 mmHg 93%
08:00 +26°C° 0 mm 1 mps 756 mmHg 92%
09:00 +27°C° 0 mm 1 mps 756 mmHg 91%
10:00 +27°C° 0 mm 1 mps 756 mmHg 89%
11:00 +25°C° 0 mm 0 mps 756 mmHg 88%
12:00 +29°C° 0 mm 1 mps 755 mmHg 79%
13:00 +31°C° 0 mm 1 mps 754 mmHg 70%
14:00 +32°C° 0 mm 1 mps 754 mmHg 61%
15:00 +31°C° 0 mm 1 mps 753 mmHg 66%
16:00 +31°C° 0 mm 2 mps 753 mmHg 70%
17:00 +30°C° 0 mm 2 mps 753 mmHg 74%
18:00 +29°C° 0 mm 2 mps 753 mmHg 77%
19:00 +28°C° 0 mm 2 mps 754 mmHg 80%
20:00 +27°C° 0 mm 2 mps 754 mmHg 84%
21:00 +27°C° 0 mm 1 mps 755 mmHg 83%
22:00 +28°C° 0 mm 1 mps 755 mmHg 82%
23:00 +28°C° 0 mm 1 mps 756 mmHg 81%

15 August, Saturday

Time Temperature Precipitation Wind Pressure Humidity
00:00 +27°C° 0 mm 1 mps 755 mmHg 82%
01:00 +27°C° 0 mm 1 mps 755 mmHg 83%
02:00 +25°C° 0 mm 0 mps 754 mmHg 85%
03:00 +25°C° 0 mm 0 mps 754 mmHg 86%
04:00 +26°C° 0 mm 1 mps 754 mmHg 87%
05:00 +26°C° 0 mm 1 mps 754 mmHg 88%
06:00 +27°C° 0 mm 1 mps 755 mmHg 85%
07:00 +28°C° 0 mm 1 mps 755 mmHg 82%
08:00 +28°C° 0 mm 1 mps 756 mmHg 79%
09:00 +30°C° 0 mm 1 mps 755 mmHg 71%
10:00 +32°C° 0 mm 1 mps 755 mmHg 63%
11:00 +35°C° 0 mm 1 mps 755 mmHg 56%
12:00 +34°C° 0.2 mm 1 mps 754 mmHg 61%
13:00 +34°C° 0.2 mm 2 mps 754 mmHg 66%
14:00 +33°C° 0.2 mm 3 mps 753 mmHg 71%
15:00 +31°C° 0.5 mm 3 mps 753 mmHg 73%
16:00 +31°C° 0.5 mm 3 mps 753 mmHg 75%
17:00 +31°C° 0.5 mm 3 mps 753 mmHg 78%
18:00 +30°C° 0.3 mm 2 mps 754 mmHg 80%
19:00 +29°C° 0.3 mm 1 mps 754 mmHg 83%
20:00 +28°C° 0.3 mm 1 mps 755 mmHg 85%
21:00 +25°C° 0.5 mm 0 mps 755 mmHg 87%
22:00 +25°C° 0.5 mm 0 mps 756 mmHg 88%
23:00 +25°C° 0.5 mm 0 mps 756 mmHg 90%

16 August, Sunday

Time Temperature Precipitation Wind Pressure Humidity
00:00 +25°C° 0.3 mm 0 mps 756 mmHg 91%
01:00 +26°C° 0.3 mm 1 mps 756 mmHg 91%
02:00 +26°C° 0.3 mm 1 mps 755 mmHg 92%
03:00 +26°C° 0.6 mm 1 mps 755 mmHg 93%
04:00 +26°C° 0.6 mm 1 mps 755 mmHg 94%
05:00 +26°C° 0.6 mm 1 mps 755 mmHg 94%
06:00 +26°C° 0.1 mm 1 mps 755 mmHg 92%
07:00 +27°C° 0.1 mm 1 mps 756 mmHg 91%
08:00 +28°C° 0.1 mm 1 mps 756 mmHg 89%
09:00 +30°C° 0 mm 1 mps 756 mmHg 78%
10:00 +32°C° 0 mm 1 mps 756 mmHg 68%
11:00 +32°C° 0 mm 0 mps 755 mmHg 57%
12:00 +34°C° 0.1 mm 1 mps 755 mmHg 61%
13:00 +34°C° 0.1 mm 2 mps 754 mmHg 64%
14:00 +33°C° 0.1 mm 3 mps 753 mmHg 68%
15:00 +33°C° 0.6 mm 3 mps 753 mmHg 71%
16:00 +31°C° 0.6 mm 3 mps 753 mmHg 75%
17:00 +31°C° 0.6 mm 2 mps 753 mmHg 78%
18:00 +30°C° 0.5 mm 2 mps 753 mmHg 81%
19:00 +29°C° 0.5 mm 2 mps 754 mmHg 83%
20:00 +28°C° 0.5 mm 1 mps 755 mmHg 86%
21:00 +28°C° 0.8 mm 1 mps 755 mmHg 86%
22:00 +27°C° 0.8 mm 1 mps 755 mmHg 87%
23:00 +27°C° 0.8 mm 1 mps 756 mmHg 88%

17 August, Monday

Time Temperature Precipitation Wind Pressure Humidity
00:00 +27°C° 2 mm 1 mps 755 mmHg 90%
01:00 +26°C° 2 mm 1 mps 755 mmHg 91%
02:00 +26°C° 2 mm 1 mps 754 mmHg 92%
03:00 +26°C° 1.9 mm 1 mps 754 mmHg 93%
04:00 +26°C° 1.9 mm 1 mps 754 mmHg 93%
05:00 +26°C° 1.9 mm 1 mps 754 mmHg 94%
06:00 +26°C° 0.7 mm 1 mps 755 mmHg 92%
07:00 +27°C° 0.7 mm 1 mps 755 mmHg 91%
08:00 +28°C° 0.7 mm 1 mps 756 mmHg 89%
09:00 +28°C° 1.5 mm 1 mps 756 mmHg 86%
10:00 +29°C° 1.5 mm 1 mps 755 mmHg 83%
11:00 +30°C° 1.5 mm 1 mps 755 mmHg 80%
12:00 +31°C° 1.2 mm 1 mps 755 mmHg 78%
13:00 +31°C° 1.2 mm 2 mps 754 mmHg 76%
14:00 +31°C° 1.2 mm 2 mps 753 mmHg 74%
15:00 +30°C° 2 mm 2 mps 753 mmHg 78%
16:00 +29°C° 2 mm 2 mps 753 mmHg 82%
17:00 +28°C° 2 mm 2 mps 753 mmHg 87%
18:00 +28°C° 1.7 mm 1 mps 754 mmHg 89%
19:00 +27°C° 1.7 mm 1 mps 754 mmHg 91%
20:00 +26°C° 1.7 mm 1 mps 755 mmHg 94%
21:00 +26°C° 0.1 mm 1 mps 755 mmHg 94%
22:00 +26°C° 0.1 mm 1 mps 755 mmHg 94%
23:00 +26°C° 0.1 mm 2 mps 756 mmHg 94%
Show more